Regional Weather Roundup
Issued by NWS Bismarck, ND

Home | Current Version | Previous Version | Text Only | Print | Product List | Glossary On
Versions: 1 2 3 4 5 6 7 8 9 10 11 12 13 14 15 16 17 18 19 20 21 22 23 24 25 26 27 28 29 30 31 32 33 34 35 36 37 38 39 40 41 42 43 44 45 46 47 48 49 50
000
ASUS43 KBIS 291210
RWRBIS

NWR BROADCAST TEXT
NATIONAL WEATHER SERVICE BISMARCK ND
700 AM CDT SAT AUG 29 2015

NOTE: "FAIR" INDICATES FEW OR NO CLOUDS BELOW 12,000 FEET WITH NO
SIGNIFICANT WEATHER AND/OR OBSTRUCTIONS TO VISIBILITY.


CITY           SKY/WX    TMP DP  RH WIND       PRES   REMARKS
WILLISTON      MOCLDY    56  51  84 SW3       29.91S HAZE
MINOT          CLOUDY    61  52  72 CALM      29.90R HAZE
MINOT AFB      PTCLDY    55  55 100 W7        29.89R
BISMARCK       CLOUDY    58  57  97 W5        29.95R FOG
DICKINSON      CLOUDY    57  44  62 S6        29.96R HAZE
GARRISON         N/A     55  51  86 CALM      29.93R
HETTINGER ARPT CLOUDY    48  43  82 CALM      30.01S HAZE
JAMESTOWN      CLEAR     60  59  96 S5        29.93R FOG
CROSBY         FAIR      59  54  82 S9        29.89S HAZE
HARVEY         FOG       55  55 100 S3        29.92R VSB<1/4
HAZEN          PTSUNNY   54  52  94 SW3       29.94S
LINTON         FOG       55  55 100 E3        29.96R VSB 1/4
MANDAN         FAIR      57  55  94 W7        29.96R
OAKES            N/A     63  55  77 S12       29.96R
RUGBY          FOG       55  55 100 SE3       29.90S VSB 1/2
STANLEY        FAIR      55  52  88 CALM      29.94R
$$

CITY           SKY/WX    TMP DP  RH WIND       PRES   REMARKS
GRAND FORKS      N/A     62  61  96 S6        29.90R FOG
GRAND FORKS AF FOG       59  59 100 S3        29.90S VSB<1/4
DEVILS LAKE      N/A     63  57  82 SE7       29.90R VSB<1/4
FARGO          CLEAR     63  59  87 S9        29.95R
CAVALIER       FOG       61  61 100 CALM      29.89F VSB<1/4
GRAFTON        FOG       59  59 100 CALM      29.90S VSB<1/4
GWINNER          N/A     63  63 100 S12       29.97R
LANGDON        FAIR      59  59 100 SE5       29.92S FOG
ROLLA          FOG       55  55 100 S3        29.93R VSB<1/4
WALHALLA       FOG       57  57 100 MISG      29.90R VSB 1/2
$$

CITY           SKY/WX    TMP DP  RH WIND       PRES   REMARKS
ABERDEEN       CLEAR     60  58  92 S8        29.98R
MOBRIDGE       MOCLDY    61  61 100 CALM      29.94S
BUFFALO          N/A     63  44  50 CALM      29.96S
RAPID CITY     PTCLDY    60  53  77 CALM      30.05S
GLASGOW        MOCLDY    65  45  48 E7        29.88S HAZE
SIDNEY         PTCLDY    52  46  82 S7        29.91S
WOLF POINT     CLOUDY    58  46  64 NE3       29.89R HAZE
GLENDIVE       CLEAR     57  45  62 SW7       29.95S
MILES CITY     CLEAR     62  44  51 SE8       29.93S HAZE
BAKER          CLEAR     53  44  71 E6        29.99S HAZE
$$

CITY           SKY/WX    TMP DP  RH WIND       PRES   REMARKS
BILLINGS       PTCLDY    64  42  44 S5        30.00R
GREAT FALLS    MOCLDY    70  39  32 SE3       29.93F HAZE
REGINA         CLOUDY    63  52  67 SE7       29.82S SMOKE
ESTEVAN        CLOUDY    59  52  77 S6        29.88F SMOKE
$$




USA.gov is the U.S. government's official web portal to all federal, state and local government web resources and services.